QPF
0.00 0.00 0.00 0.00 0.00 0.00 0.00 0.00 0.00 0.00 0.00 0.00 0.00 0.00 0.00 0.00 0.00 0.03 0.00 0.00 0.00 0.00 0.00 0.00 0.00 0.00 0.00 0.00 0.00 0.00 0.00 0.00 0.00 0.00 0.00 0.00 0.00 0.00 0.00 0.00 0.00 0.00 0.00 0.00 0.00 0.00 0.00 0.00 0.00
0.00 0.00 0.00 0.00 0.00 0.00 0.00 0.00 0.00 0.00 0.00 0.00 0.00 0.00 0.00 0.00 0.00 0.00 0.00 0.00 0.00 0.00 0.00 0.00 0.00 0.00 0.00 0.00 0.00 0.00 0.00 0.00 0.00 0.00 0.00 0.00 0.00 0.00 0.00 0.00 0.00 0.00 0.00 0.00 0.00 0.00 0.00 0.00 0.00
0.00 0.00 0.00 0.00 0.00 0.00 0.00 0.00 0.00 0.00 0.00 0.00 0.00 0.00 0.00 0.00 0.00 0.00 0.00 0.00 0.00 0.00 0.00 0.00 0.00 0.00 0.00 0.00 0.00 0.00 0.00 0.00 0.00 0.00 0.00 0.00 0.00 0.00 0.00 0.00 0.00 0.00 0.00 0.00 0.00 0.00 0.00 0.00 0.00
0.00 0.00 0.00 0.00 0.00 0.00 0.00 0.00 0.00 0.00 0.00 0.00 0.00 0.00 0.00 0.00 0.00 0.00 0.00 0.00 0.00 0.00 0.00 0.00 0.00 0.00 0.00 0.00 0.00 0.00 0.00 0.00 0.00 0.00 0.00 0.00 0.00 0.00 0.00 0.00 0.00 0.00 0.00 0.00 0.00 0.00 0.00 0.00 0.00
0.00 0.00 0.00 0.00 0.00 0.00 0.00 0.00 0.00 0.00 0.00 0.00 0.00 0.00 0.00 0.00 0.00 0.00 0.00 0.00 0.00 0.00 0.00 0.00 0.00 0.00 0.00 0.00 0.00 0.00 0.00 0.00 0.00 0.00 0.00 0.00 0.00 0.00 0.00 0.00 0.00 0.00 0.00 0.00 0.00 0.00 0.00 0.00 0.00
0.00 0.00 0.00 0.00 0.00 0.00 0.00 0.00 0.00 0.00 0.00 0.00 0.00 0.00 0.00 0.00 0.00 0.00 0.00 0.00 0.00 0.00 0.00 0.00 0.00 0.00 0.00 0.00 0.00 0.00 0.00 0.00 0.00 0.00 0.00 0.00 0.00 0.00 0.00 0.00 0.00 0.00 0.00 0.00 0.00 0.00 0.00 0.00 0.00
0.00 0.00 0.00 0.00 0.00 0.00 0.00 0.00 0.00 0.00 0.00 0.00 0.00 0.00 0.00 0.00 0.00 0.00 0.00 0.00 0.00 0.00 0.00 0.00 0.00 0.00 0.00 0.00 0.00 0.00 0.00 0.00 0.00 0.00 0.00 0.00 0.00 0.00 0.00 0.00 0.00 0.00 0.00 0.00 0.00 0.00 0.00 0.00 0.00
0.00 0.00 0.00 0.00 0.00 0.00 0.00 0.00 0.00 0.00 0.00 0.00 0.00 0.00 0.00 0.00 0.00 0.00 0.00 0.00 0.00 0.00 0.00 0.00 0.00 0.00 0.00 0.00 0.00 0.00 0.00 0.00 0.00 0.00 0.00 0.00 0.00 0.00 0.00 0.00 0.00 0.00 0.00 0.00 0.00 0.00 0.00 0.00 0.00
0.00 0.00 0.00 0.00 0.00 0.00 0.00 0.00 0.00 0.00 0.00 0.00 0.00 0.00 0.00 0.00 0.00 0.00 0.00 0.00 0.00 0.00 0.00 0.00 0.00 0.00 0.00 0.00 0.00 0.00 0.00 0.00 0.00 0.00 0.00 0.00 0.00 0.00 0.00 0.00 0.00 0.00 0.00 0.00 0.00 0.00 0.00 0.00 0.00
0.00 0.00 0.00 0.00 0.00 0.00 0.00 0.00 0.00 0.00 0.00 0.00 0.00 0.00 0.00 0.00 0.00 0.00 0.00 0.00 0.00 0.00 0.00 0.00 0.00 0.00 0.00 0.00 0.00 0.00 0.00 0.00 0.00 0.00 0.00 0.00 0.00 0.00 0.00 0.00 0.00 0.00 0.00 0.00 0.00 0.00 0.00 0.00 0.00
0.00 0.00 0.00 0.00 0.00 0.00 0.00 0.00 0.00 0.00 0.00 0.00 0.00 0.00 0.00 0.00 0.00 0.00 0.00 0.00 0.00 0.00 0.00 0.00 0.00 0.00 0.00 0.00 0.00 0.00 0.00 0.00 0.00 0.00 0.00 0.00 0.00 0.00 0.00 0.00 0.00 0.00 0.00 0.00 0.00 0.00 0.00 0.00 0.00
0.00 0.00 0.00 0.00 0.00 0.00 0.00 0.00 0.00 0.00 0.00 0.00 0.00 0.00 0.00 0.00 0.00 0.00 0.00 0.00 0.00 0.00 0.00 0.00 0.00 0.00 0.00 0.00 0.00 0.00 0.00 0.00 0.00 0.00 0.00 0.00 0.00 0.00 0.00 0.00 0.00 0.00 0.00 0.00 0.00 0.00 0.00 0.00 0.00
0.00 0.00 0.00 0.00 0.00 0.00 0.00 0.00 0.00 0.00 0.00 0.00 0.00 0.00 0.00 0.00 0.00 0.00 0.00 0.00 0.00 0.00 0.00 0.00 0.00 0.00 0.00 0.00 0.00 0.00 0.00 0.00 0.00 0.00 0.00 0.00 0.00 0.00 0.00 0.00 0.00 0.00 0.00 0.00 0.00 0.00 0.00 0.00 0.00
0.00 0.00 0.00 0.00 0.00 0.00 0.00 0.00 0.00 0.00 0.00 0.00 0.00 0.00 0.00 0.00 0.00 0.00 0.00 0.00 0.00 0.00 0.00 0.00 0.00 0.00 0.00 0.00 0.00 0.00 0.00 0.00 0.00 0.00 0.00 0.00 0.00 0.00 0.00 0.00 0.00 0.00 0.00 0.00 0.00 0.00 0.00 0.00 0.00
0.00 0.00 0.00 0.00 0.00 0.00 0.00 0.00 0.00 0.00 0.00 0.00 0.00 0.00 0.00 0.00 0.00 0.00 0.00 0.00 0.00 0.00 0.00 0.00 0.01 0.01 0.00 0.00 0.00 0.00 0.00 0.00 0.00 0.00 0.00 0.00 0.00 0.00 0.00 0.00 0.00 0.00 0.00 0.00 0.00 0.00 0.00 0.00 0.00
0.00 0.00 0.00 0.00 0.00 0.00 0.00 0.00 0.00 0.00 0.00 0.00 0.00 0.00 0.00 0.00 0.00 0.00 0.00 0.00 0.00 0.00 0.01 0.09 0.01 0.00 0.00 0.00 0.00 0.00 0.00 0.00 0.00 0.00 0.00 0.00 0.00 0.00 0.00 0.00 0.00 0.00 0.00 0.00 0.00 0.00 0.00 0.00 0.00
0.00 0.00 0.00 0.00 0.00 0.00 0.00 0.00 0.00 0.00 0.00 0.00 0.00 0.00 0.00 0.00 0.00 0.00 0.00 0.00 0.00 0.00 0.00 0.00 0.00 0.01 0.00 0.00 0.00 0.00 0.00 0.00 0.00 0.00 0.00 0.00 0.00 0.00 0.00 0.00 0.00 0.00 0.00 0.00 0.00 0.00 0.00 0.00 0.00
0.00 0.00 0.00 0.00 0.00 0.00 0.00 0.00 0.00 0.00 0.00 0.00 0.00 0.00 0.00 0.00 0.00 0.00 0.00 0.00 0.00 0.00 0.00 0.00 0.02 0.02 0.00 0.00 0.00 0.00 0.00 0.00 0.00 0.00 0.00 0.00 0.00 0.00 0.00 0.00 0.00 0.00 0.00 0.00 0.00 0.00 0.00 0.00 0.00
0.00 0.00 0.00 0.00 0.00 0.00 0.00 0.00 0.00 0.00 0.00 0.00 0.00 0.00 0.00 0.00 0.00 0.00 0.00 0.00 0.00 0.00 0.00 0.01 0.07 0.02 0.00 0.00 0.00 0.00 0.00 0.00 0.00 0.00 0.00 0.00 0.00 0.00 0.00 0.00 0.00 0.00 0.00 0.00 0.00 0.00 0.00 0.00 0.00
0.00 0.00 0.00 0.00 0.00 0.00 0.00 0.00 0.00 0.00 0.00 0.00 0.00 0.00 0.00 0.00 0.00 0.00 0.00 0.00 0.00 0.00 0.01 0.02 0.01 0.00 0.00 0.00 0.00 0.00 0.00 0.00 0.00 0.00 0.00 0.00 0.00 0.00 0.00 0.00 0.00 0.00 0.00 0.00 0.00 0.00 0.00 0.00 0.00
0.00 0.00 0.00 0.00 0.00 0.00 0.00 0.00 0.00 0.00 0.00 0.00 0.00 0.00 0.00 0.00 0.00 0.00 0.00 0.00 0.00 0.00 0.00 0.00 0.00 0.00 0.00 0.00 0.00 0.00 0.00 0.00 0.00 0.00 0.00 0.00 0.00 0.00 0.00 0.00 0.00 0.00 0.00 0.00 0.00 0.00 0.00 0.00 0.00
0.00 0.00 0.00 0.00 0.00 0.00 0.00 0.00 0.00 0.00 0.00 0.00 0.00 0.00 0.00 0.00 0.00 0.00 0.00 0.00 0.00 0.00 0.00 0.00 0.00 0.00 0.00 0.00 0.00 0.00 0.00 0.00 0.00 0.00 0.00 0.00 0.00 0.00 0.00 0.00 0.00 0.00 0.00 0.00 0.00 0.00 0.00 0.00 0.00
0.00 0.00 0.00 0.00 0.00 0.00 0.00 0.00 0.00 0.00 0.00 0.00 0.00 0.00 0.00 0.00 0.00 0.00 0.00 0.00 0.00 0.00 0.00 0.00 0.00 0.00 0.00 0.00 0.00 0.00 0.00 0.00 0.00 0.00 0.00 0.00 0.00 0.00 0.00 0.00 0.00 0.00 0.00 0.00 0.00 0.00 0.00 0.00 0.00
0.00 0.00 0.00 0.00 0.00 0.00 0.00 0.00 0.00 0.00 0.00 0.00 0.00 0.00 0.00 0.00 0.00 0.00 0.00 0.00 0.00 0.00 0.00 0.00 0.00 0.00 0.00 0.00 0.00 0.00 0.00 0.00 0.00 0.00 0.00 0.00 0.00 0.00 0.00 0.00 0.00 0.00 0.00 0.00 0.00 0.00 0.00 0.00 0.00
0.00 0.00 0.00 0.01 0.00 0.00 0.01 0.00 0.00 0.00 0.00 0.00 0.00 0.00 0.00 0.00 0.00 0.00 0.00 0.00 0.00 0.00 0.00 0.00 0.00 0.00 0.00 0.00 0.00 0.00 0.00 0.00 0.00 0.00 0.00 0.00 0.00 0.00 0.00 0.00 0.00 0.00 0.00 0.00 0.00 0.00 0.00 0.00 0.00
0.00 0.00 0.00 0.00 0.01 0.01 0.00 0.00 0.00 0.00 0.00 0.00 0.00 0.00 0.00 0.00 0.00 0.00 0.00 0.00 0.00 0.00 0.00 0.00 0.00 0.00 0.00 0.00 0.00 0.00 0.00 0.00 0.00 0.00 0.00 0.00 0.00 0.00 0.00 0.00 0.00 0.00 0.00 0.00 0.00 0.00 0.00 0.00 0.00
0.00 0.00 0.00 0.00 0.00 0.00 0.00 0.00 0.00 0.00 0.00 0.00 0.00 0.00 0.00 0.00 0.00 0.00 0.00 0.00 0.00 0.00 0.00 0.00 0.00 0.00 0.00 0.00 0.00 0.00 0.00 0.00 0.00 0.00 0.00 0.00 0.00 0.00 0.00 0.00 0.00 0.00 0.00 0.00 0.00 0.00 0.00 0.00 0.01
0.00 0.00 0.00 0.00 0.00 0.00 0.00 0.00 0.00 0.00 0.00 0.00 0.00 0.00 0.00 0.00 0.00 0.00 0.00 0.00 0.00 0.00 0.00 0.00 0.00 0.00 0.00 0.00 0.00 0.00 0.00 0.00 0.00 0.00 0.00 0.00 0.00 0.00 0.00 0.00 0.00 0.00 0.00 0.00 0.00 0.01 0.01 0.01 0.01
0.00 0.00 0.00 0.00 0.00 0.00 0.00 0.00 0.00 0.00 0.00 0.00 0.00 0.00 0.00 0.00 0.00 0.00 0.00 0.00 0.00 0.00 0.00 0.00 0.00 0.00 0.00 0.00 0.00 0.00 0.00 0.00 0.00 0.00 0.00 0.00 0.00 0.00 0.00 0.00 0.01 0.01 0.01 0.02 0.02 0.02 0.01 0.01 0.02
0.00 0.00 0.00 0.00 0.00 0.00 0.00 0.00 0.00 0.00 0.00 0.00 0.00 0.00 0.00 0.00 0.00 0.00 0.00 0.00 0.00 0.00 0.00 0.00 0.00 0.00 0.00 0.00 0.00 0.00 0.00 0.00 0.00 0.00 0.00 0.00 0.00 0.00 0.00 0.00 0.00 0.00 0.01 0.01 0.01 0.01 0.01 0.00 0.00
MSLP
1010.92 1010.20 1010.03 1009.35 1008.97 1006.77 1004.75 1003.32 1002.94 1003.70 1004.29 1004.87 1005.16 1005.49 1007.05 1008.03 1008.40 1010.48 1011.38 1011.94 1012.90 1014.00 1014.95 1015.70 1016.15 1016.60 1016.96 1017.19 1017.33 1017.56 1017.75 1018.16 1018.39 1018.59 1018.68 1018.80 1018.86 1019.10 1019.26 1019.44 1019.36 1019.33 1019.32 1018.97 1019.03 1018.79 1018.79 1018.55 1018.29
1010.52 1009.81 1009.23 1008.57 1007.59 1005.75 1003.91 1003.69 1003.83 1004.55 1005.17 1005.55 1005.91 1006.24 1007.25 1009.00 1009.60 1010.90 1011.75 1012.20 1012.88 1013.85 1015.05 1016.00 1016.35 1016.75 1017.09 1017.40 1017.57 1017.70 1018.05 1018.43 1018.71 1018.78 1018.94 1018.91 1019.05 1019.22 1019.17 1019.54 1019.48 1019.53 1019.41 1019.38 1019.26 1019.23 1019.08 1018.84 1018.69
1011.21 1009.73 1008.99 1007.48 1006.02 1004.68 1003.78 1004.11 1004.89 1005.79 1005.77 1005.86 1006.80 1007.73 1007.92 1009.23 1010.33 1011.35 1012.16 1012.37 1013.15 1014.55 1015.57 1016.48 1016.87 1017.23 1017.44 1017.61 1017.79 1018.16 1018.48 1018.73 1018.73 1019.01 1019.20 1019.22 1019.44 1019.60 1019.45 1019.81 1019.79 1019.80 1019.82 1019.77 1019.60 1019.51 1019.34 1019.12 1018.75
1010.30 1009.21 1008.49 1006.76 1005.18 1003.93 1003.86 1004.40 1005.34 1006.00 1006.30 1006.40 1007.06 1008.52 1009.29 1009.59 1011.19 1012.10 1012.49 1012.86 1013.39 1015.04 1016.07 1016.85 1017.13 1017.38 1017.69 1017.86 1018.13 1018.39 1018.65 1018.97 1019.12 1019.30 1019.49 1019.67 1019.85 1019.77 1019.82 1020.10 1020.19 1020.21 1020.11 1019.90 1019.88 1019.75 1019.53 1019.32 1019.05
1009.88 1008.67 1007.64 1005.64 1004.76 1004.35 1004.40 1004.96 1005.49 1006.22 1006.68 1006.77 1007.45 1009.06 1010.02 1011.09 1011.89 1012.38 1012.63 1013.24 1013.91 1015.39 1016.30 1016.95 1017.27 1017.55 1017.95 1018.22 1018.43 1018.65 1018.96 1019.21 1019.39 1019.48 1019.62 1019.94 1019.94 1019.94 1020.07 1020.07 1020.28 1020.35 1020.12 1020.01 1019.92 1019.81 1019.66 1019.44 1019.20
1009.17 1007.75 1006.91 1005.43 1005.04 1004.91 1005.17 1005.43 1005.99 1006.39 1006.64 1007.34 1007.73 1009.15 1010.69 1011.64 1012.29 1012.84 1013.02 1013.49 1014.17 1015.29 1016.18 1016.75 1017.34 1017.52 1017.75 1018.04 1018.54 1018.88 1019.07 1019.44 1019.48 1019.63 1019.66 1020.11 1020.08 1020.08 1020.12 1020.22 1020.34 1020.40 1020.26 1020.23 1020.13 1020.01 1019.79 1019.62 1019.32
1008.65 1007.76 1006.54 1005.06 1005.44 1005.50 1006.02 1006.42 1006.15 1006.38 1006.87 1007.45 1008.02 1009.18 1010.94 1011.79 1012.74 1012.94 1013.29 1013.82 1014.48 1014.93 1015.67 1016.37 1017.25 1017.66 1018.01 1018.40 1018.83 1019.00 1019.26 1019.46 1019.51 1019.73 1019.73 1019.90 1019.89 1019.96 1020.02 1020.29 1020.43 1020.33 1020.27 1020.28 1020.19 1020.04 1019.84 1019.60 1019.29
1007.26 1006.96 1006.55 1005.50 1005.77 1006.18 1006.85 1006.87 1006.70 1006.85 1007.81 1008.02 1008.31 1008.81 1010.74 1011.98 1012.88 1013.32 1013.67 1014.03 1014.65 1014.93 1015.36 1016.06 1016.52 1017.07 1017.89 1018.39 1018.72 1018.99 1019.18 1019.16 1019.35 1019.53 1019.61 1019.77 1019.76 1019.97 1020.03 1020.24 1020.27 1020.20 1020.15 1020.12 1020.09 1019.97 1019.74 1019.48 1019.27
1006.32 1005.81 1004.86 1005.24 1005.48 1006.30 1007.31 1007.16 1007.49 1007.70 1008.23 1008.61 1009.15 1009.15 1010.61 1012.14 1013.01 1013.56 1013.87 1014.18 1014.61 1015.00 1015.55 1015.93 1016.26 1016.88 1017.43 1017.95 1018.58 1018.93 1018.82 1018.99 1019.06 1019.27 1019.26 1019.60 1019.34 1019.62 1019.69 1019.73 1019.82 1019.90 1019.82 1019.69 1019.75 1019.79 1019.58 1019.40 1019.26
1005.61 1005.07 1004.73 1005.26 1005.58 1006.13 1007.10 1007.13 1007.79 1008.11 1008.66 1009.25 1009.88 1010.35 1011.38 1012.45 1013.00 1013.40 1013.78 1014.07 1014.61 1015.08 1015.61 1016.07 1016.64 1017.02 1017.12 1016.90 1017.87 1018.21 1017.92 1018.41 1018.56 1018.63 1018.84 1018.93 1018.71 1018.82 1018.96 1019.27 1019.68 1019.81 1019.64 1019.49 1019.62 1019.52 1019.34 1019.42 1019.04
1005.42 1005.38 1005.47 1005.83 1006.59 1006.35 1006.91 1007.39 1007.77 1007.91 1008.36 1008.84 1009.91 1010.54 1011.62 1012.59 1013.00 1013.25 1013.52 1013.81 1014.54 1014.83 1015.29 1016.18 1016.82 1016.89 1017.04 1017.24 1017.32 1017.33 1017.54 1017.75 1017.97 1018.34 1018.62 1018.62 1018.74 1018.80 1018.84 1019.11 1019.50 1019.57 1019.46 1019.33 1019.38 1019.03 1019.22 1018.72 1018.83
1005.63 1005.84 1006.07 1006.47 1006.97 1006.92 1007.10 1007.44 1007.88 1007.80 1007.76 1008.54 1009.32 1010.31 1011.32 1012.02 1012.46 1012.74 1013.07 1013.35 1013.75 1014.29 1014.92 1015.66 1016.48 1017.08 1017.17 1017.30 1017.42 1017.27 1017.74 1017.94 1018.13 1018.34 1018.54 1018.73 1018.84 1018.96 1019.00 1019.15 1019.18 1019.12 1018.98 1018.82 1018.71 1018.74 1018.60 1018.48 1018.48
1005.69 1006.29 1006.69 1006.98 1007.49 1007.52 1007.65 1007.68 1007.78 1007.97 1008.37 1008.87 1009.20 1010.14 1011.01 1011.70 1012.10 1012.46 1012.43 1013.16 1013.37 1014.10 1014.49 1015.16 1015.83 1016.68 1017.14 1017.18 1017.44 1017.66 1017.88 1018.19 1018.19 1018.31 1018.72 1018.88 1018.97 1019.14 1019.12 1019.15 1019.08 1019.01 1018.79 1018.68 1018.68 1018.71 1018.59 1018.49 1018.34
1005.96 1006.55 1006.98 1007.29 1007.37 1007.82 1007.94 1007.71 1008.07 1008.01 1008.27 1009.05 1009.40 1009.83 1010.33 1010.83 1011.36 1011.70 1012.06 1012.61 1013.19 1013.37 1013.86 1014.53 1015.03 1015.78 1016.64 1017.02 1017.43 1017.78 1018.02 1018.06 1018.11 1018.42 1018.73 1018.95 1019.11 1019.10 1019.13 1019.21 1019.07 1018.96 1018.74 1018.60 1018.56 1018.48 1018.31 1018.20 1017.96
1006.53 1006.82 1007.05 1007.27 1007.47 1007.72 1008.11 1007.71 1007.73 1007.93 1008.43 1008.77 1009.23 1009.64 1009.87 1010.16 1010.67 1011.25 1011.81 1012.28 1012.83 1013.08 1013.40 1014.32 1014.72 1014.86 1016.34 1016.92 1017.50 1017.76 1017.88 1018.02 1018.00 1018.20 1018.51 1018.75 1018.86 1018.98 1019.04 1019.11 1018.96 1018.77 1018.55 1018.44 1018.35 1018.13 1017.90 1017.81 1017.46
1006.78 1006.59 1006.40 1006.81 1007.14 1007.53 1008.06 1007.05 1006.96 1007.56 1008.06 1008.55 1008.71 1009.03 1009.58 1009.46 1010.31 1010.84 1011.70 1012.23 1012.64 1012.74 1014.43 1015.32 1014.23 1015.17 1016.14 1016.93 1017.48 1017.57 1017.86 1018.03 1018.00 1018.02 1018.16 1018.47 1018.65 1018.62 1018.85 1019.05 1019.04 1018.85 1018.71 1018.50 1018.31 1018.19 1017.97 1017.73 1017.49
1006.61 1006.03 1006.03 1006.72 1007.02 1007.20 1007.49 1006.77 1006.64 1007.53 1007.73 1008.18 1008.34 1008.54 1009.19 1009.40 1009.98 1010.86 1011.50 1012.32 1012.83 1013.05 1013.47 1014.24 1014.53 1015.35 1016.08 1016.84 1017.34 1017.57 1017.82 1018.15 1018.09 1018.11 1018.54 1018.81 1018.98 1019.08 1019.25 1019.32 1019.18 1018.97 1018.83 1018.60 1018.45 1018.20 1017.89 1017.67 1017.44
1006.53 1005.97 1006.02 1006.34 1007.29 1007.63 1007.35 1006.90 1006.86 1007.47 1007.90 1008.24 1008.34 1008.49 1008.78 1009.37 1009.92 1010.70 1011.37 1012.20 1012.78 1013.21 1013.68 1014.29 1015.21 1015.99 1016.40 1016.96 1017.34 1017.62 1017.76 1017.90 1017.96 1018.32 1018.64 1018.99 1019.28 1019.40 1019.61 1019.53 1019.32 1019.14 1019.10 1018.87 1018.61 1018.44 1018.21 1017.94 1017.59
1007.08 1006.69 1006.52 1006.99 1007.91 1008.08 1007.62 1007.34 1007.34 1007.97 1007.99 1008.25 1008.51 1008.77 1009.33 1010.21 1011.28 1011.86 1012.76 1013.47 1013.80 1014.38 1015.25 1016.00 1016.63 1016.98 1017.08 1017.17 1017.75 1018.17 1018.52 1018.32 1018.49 1018.61 1018.92 1019.12 1019.52 1019.72 1019.81 1019.75 1019.55 1019.20 1019.36 1019.23 1018.92 1018.70 1018.40 1017.97 1017.51
1007.77 1007.60 1007.49 1007.79 1008.46 1008.71 1007.80 1007.69 1008.06 1008.95 1009.27 1009.13 1009.51 1009.96 1010.65 1011.55 1012.59 1013.44 1014.32 1014.87 1015.26 1015.89 1016.29 1016.65 1017.25 1017.65 1017.89 1017.96 1018.40 1018.76 1018.83 1018.85 1018.83 1019.10 1019.32 1019.34 1019.65 1019.92 1019.81 1019.92 1019.60 1019.15 1019.41 1019.41 1019.12 1018.73 1018.50 1018.08 1017.75
1008.27 1008.59 1008.99 1009.17 1008.98 1008.79 1008.55 1008.08 1008.66 1009.83 1010.46 1010.55 1010.67 1011.15 1011.85 1012.78 1013.74 1014.63 1015.55 1016.15 1016.57 1016.94 1017.22 1017.63 1018.13 1018.54 1018.76 1018.77 1018.82 1019.15 1019.07 1019.11 1019.10 1019.23 1019.46 1019.35 1019.47 1019.73 1019.87 1019.96 1019.79 1019.51 1019.36 1019.35 1019.09 1018.74 1018.49 1018.26 1018.10
1009.28 1010.06 1010.18 1009.96 1009.60 1008.50 1008.41 1008.31 1008.96 1010.07 1010.92 1011.51 1011.83 1012.38 1013.11 1013.78 1014.45 1015.16 1016.20 1017.22 1017.67 1017.98 1018.13 1018.38 1018.57 1018.78 1019.17 1019.38 1019.46 1019.73 1019.69 1019.71 1019.59 1019.54 1019.96 1019.80 1019.54 1019.63 1019.96 1019.96 1019.83 1019.66 1019.53 1019.48 1019.13 1018.86 1018.67 1018.52 1018.36
1010.32 1010.74 1010.55 1010.30 1009.86 1009.31 1008.48 1008.65 1008.77 1009.90 1011.05 1012.01 1012.75 1013.33 1014.14 1014.84 1015.41 1016.11 1016.90 1017.54 1018.07 1018.48 1018.73 1018.73 1018.77 1019.00 1019.32 1019.60 1019.85 1020.08 1020.14 1020.18 1020.15 1020.15 1020.06 1020.02 1020.13 1020.13 1020.15 1020.24 1020.14 1019.93 1019.59 1019.32 1019.02 1018.81 1018.79 1018.80 1018.85
1010.78 1010.54 1010.33 1010.30 1010.07 1009.73 1009.11 1008.95 1010.39 1010.35 1011.57 1012.61 1013.48 1014.05 1014.69 1015.36 1016.04 1016.70 1017.21 1017.56 1018.20 1018.65 1018.92 1019.00 1018.97 1018.87 1018.91 1019.29 1019.72 1019.92 1020.10 1020.16 1020.33 1020.43 1020.58 1020.80 1020.76 1020.81 1020.69 1020.35 1020.12 1019.84 1019.53 1019.44 1019.50 1019.38 1019.38 1019.47 1019.55
1010.43 1010.21 1010.38 1011.03 1010.47 1010.64 1010.26 1010.07 1010.69 1011.48 1011.89 1012.76 1013.72 1014.43 1015.34 1016.03 1016.46 1016.72 1017.01 1017.39 1017.90 1018.39 1018.68 1018.78 1018.88 1019.02 1018.98 1018.90 1019.25 1019.71 1020.03 1020.33 1020.76 1020.97 1021.30 1021.42 1021.31 1021.11 1020.94 1020.54 1020.17 1019.90 1019.79 1019.57 1019.40 1019.56 1019.58 1019.58 1019.73
1011.13 1011.37 1011.92 1012.31 1012.54 1012.14 1011.26 1010.55 1011.64 1012.33 1013.15 1013.57 1014.24 1014.85 1015.44 1016.01 1016.53 1016.87 1017.19 1017.53 1017.81 1018.13 1018.36 1018.61 1018.91 1019.24 1019.24 1019.20 1019.38 1019.88 1020.36 1020.76 1021.04 1021.31 1021.52 1021.55 1021.38 1021.09 1020.76 1020.60 1020.34 1020.34 1020.39 1020.28 1020.04 1019.92 1019.93 1019.82 1019.78
1011.87 1012.26 1013.18 1013.51 1014.33 1013.95 1012.28 1011.96 1012.48 1013.07 1013.57 1013.83 1014.39 1014.87 1015.22 1015.70 1016.05 1016.44 1017.02 1017.28 1017.58 1017.99 1018.32 1018.66 1018.84 1019.25 1019.62 1020.07 1020.13 1020.22 1020.47 1020.79 1021.12 1021.41 1021.52 1021.44 1021.37 1021.24 1021.18 1021.15 1020.89 1020.76 1020.69 1020.43 1020.26 1020.21 1020.17 1019.88 1019.69
1012.51 1013.23 1013.37 1014.14 1014.88 1014.69 1013.23 1012.68 1013.30 1013.49 1013.89 1014.48 1014.36 1014.84 1015.33 1015.78 1016.22 1016.66 1017.13 1017.50 1017.95 1018.48 1018.71 1019.06 1019.37 1019.65 1019.84 1020.09 1020.41 1020.50 1020.65 1020.76 1021.15 1021.29 1021.29 1021.54 1021.62 1021.49 1021.31 1021.06 1021.02 1020.86 1020.71 1020.64 1020.34 1020.32 1020.15 1019.76 1019.37
1013.00 1013.13 1014.17 1014.93 1015.72 1015.91 1015.22 1014.13 1013.79 1013.78 1014.06 1014.63 1015.06 1015.27 1015.74 1016.30 1016.82 1017.28 1017.77 1018.25 1018.69 1019.16 1019.36 1019.66 1019.75 1019.96 1020.04 1020.07 1020.37 1020.60 1020.70 1020.74 1020.88 1021.02 1021.33 1021.57 1021.58 1021.47 1021.21 1020.98 1020.86 1020.72 1020.59 1020.54 1020.21 1020.01 1019.77 1019.43 1019.07
1013.94 1014.14 1014.77 1015.76 1016.47 1016.52 1016.27 1015.19 1014.34 1014.46 1014.69 1015.22 1015.67 1015.90 1016.57 1017.15 1017.69 1018.26 1018.77 1019.20 1019.33 1019.52 1019.72 1019.85 1019.94 1019.99 1020.01 1020.40 1020.53 1020.57 1020.55 1020.67 1020.94 1021.19 1021.40 1021.49 1021.34 1021.18 1020.99 1020.68 1020.63 1020.46 1020.26 1020.00 1019.73 1019.47 1019.17 1018.81 1018.54
Thickness
5746 5753 5755 5752 5724 5739 5741 5764 5781 5763 5759 5771 5774 5764 5744 5744 5734 5700 5738 5737 5733 5720 5712 5704 5700 5695 5691 5687 5684 5682 5680 5675 5672 5669 5666 5664 5662 5658 5656 5655 5654 5654 5652 5654 5651 5652 5650 5653 5655
5745 5752 5751 5740 5720 5721 5748 5765 5755 5756 5764 5769 5765 5757 5741 5722 5739 5730 5727 5732 5727 5720 5707 5700 5697 5692 5688 5684 5681 5680 5676 5672 5668 5666 5663 5662 5660 5657 5656 5653 5653 5650 5649 5648 5647 5646 5647 5649 5649
5735 5749 5733 5731 5733 5731 5738 5755 5750 5748 5759 5755 5742 5744 5738 5723 5730 5727 5728 5728 5721 5712 5703 5695 5690 5686 5682 5680 5677 5674 5671 5668 5666 5663 5660 5658 5656 5653 5652 5649 5648 5646 5644 5643 5643 5643 5643 5644 5647
5734 5740 5738 5725 5730 5758 5753 5751 5751 5746 5751 5753 5742 5719 5730 5739 5726 5722 5725 5723 5718 5704 5695 5688 5685 5681 5678 5676 5674 5670 5667 5663 5661 5659 5656 5654 5651 5650 5649 5646 5644 5642 5641 5642 5640 5640 5641 5641 5642
5732 5735 5715 5731 5739 5753 5757 5753 5756 5739 5737 5741 5739 5708 5712 5721 5723 5721 5720 5716 5710 5698 5690 5685 5683 5681 5677 5673 5670 5667 5664 5661 5659 5657 5655 5652 5650 5649 5646 5646 5642 5640 5641 5641 5640 5639 5638 5638 5638
5714 5734 5713 5724 5733 5743 5747 5754 5747 5737 5742 5736 5728 5714 5707 5719 5713 5711 5713 5711 5706 5697 5690 5687 5682 5681 5678 5675 5669 5665 5663 5659 5657 5656 5654 5650 5649 5647 5645 5643 5640 5638 5638 5637 5636 5635 5635 5635 5635
5710 5713 5710 5733 5723 5729 5732 5745 5737 5736 5732 5727 5734 5707 5709 5711 5710 5712 5710 5708 5703 5699 5693 5688 5682 5679 5675 5670 5667 5664 5661 5657 5657 5654 5652 5650 5649 5647 5645 5640 5638 5637 5636 5634 5633 5632 5633 5633 5634
5728 5721 5708 5729 5715 5711 5729 5732 5739 5733 5716 5738 5736 5711 5699 5709 5711 5710 5707 5705 5701 5700 5695 5689 5686 5681 5673 5669 5666 5662 5660 5659 5656 5653 5651 5648 5647 5643 5641 5636 5635 5634 5633 5631 5630 5629 5629 5630 5630
5745 5717 5725 5724 5724 5716 5727 5720 5731 5736 5722 5726 5725 5726 5722 5715 5710 5704 5701 5700 5699 5697 5693 5689 5685 5680 5676 5671 5666 5661 5661 5659 5656 5652 5650 5647 5645 5641 5640 5634 5633 5630 5628 5629 5626 5624 5624 5625 5625
5731 5728 5731 5738 5734 5724 5723 5724 5720 5718 5714 5712 5713 5721 5719 5711 5706 5701 5697 5696 5693 5691 5689 5687 5682 5677 5675 5675 5669 5663 5664 5659 5655 5652 5647 5644 5644 5640 5635 5634 5628 5625 5624 5623 5621 5619 5619 5618 5619
5733 5716 5731 5732 5728 5732 5723 5721 5727 5719 5707 5715 5708 5712 5712 5706 5703 5701 5699 5698 5692 5692 5690 5684 5676 5674 5672 5670 5668 5666 5661 5658 5654 5648 5643 5642 5638 5635 5632 5628 5624 5622 5621 5619 5617 5617 5615 5615 5613
5718 5726 5726 5725 5726 5725 5719 5728 5718 5724 5725 5731 5727 5721 5714 5706 5703 5703 5700 5699 5697 5696 5691 5686 5676 5670 5668 5666 5663 5662 5656 5651 5648 5643 5639 5635 5632 5629 5626 5622 5619 5616 5614 5614 5613 5611 5610 5610 5608
5717 5718 5722 5725 5722 5723 5726 5721 5720 5721 5730 5733 5730 5722 5712 5708 5706 5706 5707 5700 5700 5692 5691 5687 5680 5671 5665 5662 5659 5654 5649 5644 5641 5637 5632 5628 5625 5622 5619 5616 5613 5610 5609 5608 5606 5604 5603 5602 5601
5725 5721 5719 5723 5723 5722 5716 5721 5720 5725 5733 5724 5723 5719 5717 5713 5710 5709 5707 5702 5697 5696 5693 5689 5684 5676 5665 5660 5654 5648 5643 5639 5637 5633 5627 5622 5617 5615 5611 5607 5605 5603 5602 5601 5600 5598 5598 5597 5597
5724 5710 5718 5719 5721 5718 5721 5709 5711 5727 5728 5722 5718 5719 5719 5717 5715 5708 5706 5702 5699 5699 5695 5684 5672 5680 5665 5657 5648 5642 5640 5634 5631 5627 5621 5616 5610 5607 5602 5600 5598 5596 5595 5593 5591 5591 5591 5591 5592
5711 5717 5702 5719 5723 5723 5717 5699 5723 5732 5725 5719 5721 5719 5717 5717 5712 5710 5707 5702 5701 5700 5682 5648 5678 5674 5661 5649 5642 5637 5633 5627 5623 5619 5613 5610 5604 5603 5596 5592 5588 5586 5584 5583 5582 5581 5580 5580 5579
5712 5700 5710 5708 5726 5723 5717 5708 5727 5731 5726 5720 5721 5720 5717 5716 5713 5708 5706 5700 5696 5695 5691 5681 5674 5665 5656 5643 5635 5631 5626 5619 5614 5608 5601 5597 5589 5588 5582 5578 5577 5575 5574 5573 5571 5571 5571 5570 5569
5692 5710 5718 5711 5714 5714 5712 5716 5728 5726 5722 5717 5720 5722 5718 5712 5712 5707 5703 5698 5692 5688 5683 5672 5662 5652 5644 5634 5631 5623 5615 5612 5606 5601 5592 5588 5578 5575 5569 5567 5565 5562 5561 5560 5558 5556 5556 5555 5555
5709 5710 5711 5712 5712 5704 5707 5712 5715 5718 5719 5716 5716 5717 5714 5702 5698 5695 5688 5682 5678 5672 5661 5653 5644 5637 5633 5627 5617 5609 5602 5598 5594 5588 5579 5575 5568 5563 5556 5554 5552 5551 5545 5542 5541 5540 5539 5540 5539
5704 5701 5702 5707 5706 5699 5708 5705 5708 5706 5703 5707 5705 5703 5696 5689 5682 5677 5671 5665 5658 5653 5648 5641 5634 5627 5620 5613 5605 5598 5594 5588 5582 5574 5568 5562 5556 5549 5544 5539 5537 5536 5529 5524 5522 5521 5520 5521 5518
5699 5691 5685 5683 5698 5704 5699 5696 5691 5693 5692 5693 5694 5692 5686 5676 5666 5660 5654 5647 5642 5636 5632 5626 5619 5613 5606 5599 5594 5587 5583 5577 5572 5566 5558 5552 5546 5536 5531 5523 5520 5518 5514 5508 5506 5504 5501 5500 5500
5679 5688 5683 5682 5680 5675 5704 5674 5681 5680 5675 5677 5678 5674 5667 5663 5660 5653 5644 5632 5626 5621 5618 5612 5607 5602 5596 5587 5579 5573 5568 5562 5558 5553 5544 5539 5533 5527 5517 5511 5506 5501 5496 5490 5488 5486 5480 5477 5475
5675 5682 5680 5682 5679 5683 5693 5681 5684 5682 5661 5658 5664 5661 5655 5648 5642 5634 5627 5621 5617 5611 5606 5602 5597 5591 5584 5576 5569 5563 5556 5549 5543 5536 5531 5525 5517 5508 5501 5492 5486 5480 5476 5473 5468 5465 5459 5452 5446
5684 5681 5684 5684 5680 5657 5684 5684 5649 5663 5654 5647 5651 5649 5645 5638 5631 5624 5618 5612 5607 5602 5596 5590 5585 5581 5575 5569 5562 5554 5546 5540 5531 5523 5515 5505 5497 5488 5480 5474 5468 5463 5457 5451 5443 5436 5431 5424 5418
5681 5674 5650 5638 5649 5645 5677 5670 5655 5665 5665 5652 5643 5638 5633 5627 5620 5615 5611 5606 5599 5595 5590 5584 5580 5572 5568 5561 5555 5547 5537 5526 5514 5503 5492 5482 5475 5467 5459 5453 5447 5441 5434 5427 5420 5409 5401 5397 5390
5665 5661 5634 5620 5622 5639 5671 5658 5640 5659 5656 5648 5641 5632 5624 5618 5614 5607 5603 5597 5593 5587 5583 5577 5571 5561 5555 5550 5542 5531 5519 5506 5494 5483 5472 5462 5456 5448 5440 5431 5423 5415 5406 5398 5391 5382 5373 5364 5359
5655 5642 5653 5632 5619 5616 5653 5655 5649 5647 5641 5639 5632 5627 5620 5614 5609 5602 5598 5593 5589 5581 5575 5567 5561 5553 5542 5530 5521 5511 5502 5491 5479 5467 5457 5447 5436 5425 5415 5404 5396 5386 5379 5369 5363 5354 5345 5338 5333
5655 5655 5632 5630 5601 5604 5638 5642 5616 5627 5625 5617 5621 5614 5609 5609 5602 5594 5589 5583 5578 5568 5562 5555 5546 5536 5527 5516 5504 5494 5482 5472 5458 5446 5436 5423 5410 5400 5392 5383 5372 5362 5352 5341 5331 5323 5317 5313 5313
5646 5641 5634 5630 5616 5596 5595 5618 5633 5626 5624 5615 5609 5607 5601 5598 5592 5584 5577 5570 5562 5555 5547 5538 5530 5520 5510 5500 5487 5474 5462 5451 5439 5425 5414 5402 5391 5378 5370 5359 5349 5338 5326 5316 5309 5303 5300 5299 5299
5645 5636 5630 5602 5600 5599 5589 5598 5629 5622 5617 5607 5598 5596 5590 5585 5575 5569 5563 5553 5547 5540 5532 5523 5514 5505 5495 5480 5466 5454 5442 5432 5416 5401 5390 5378 5369 5358 5348 5339 5329 5319 5311 5305 5298 5295 5292 5291 5290